Weather in Kytaihorod

Ukraine / Dnipropetrovsk Region     48°54′00″N   34°26′48″E
temp.,
°C
wind,
m/s
gust,
m/s
humid.,
%
clouds,
%
prec.,
mm/h
press.,
hPa
HPBL,
m
8 may, sat
sat800:00+14s51255100 0.0 1011360
03:00+13ssw51374100 0.3 1011614
06:00+13sse71573100 0.4 1008547
09:00+13s81582100 0.9 1008796
12:00+12ssw71392100 5.7 1007859
15:00+13w6986100 8.6 1009838
18:00+9nw61284100 0.1 1011857
21:00+8nnw71286100 0.2 1013811
9 may, sun
sun900:00+6nw51387100 0.0 1015691
03:00+4nw5138735 0.0 1016472
06:00+4nw614856 0.0 1018587
09:00+8nnw711615 0.0 10201219
12:00+12nw8104786 0.0 10212286
15:00+13nw91141100 0.0 10222772
18:00+12nnw710515 0.0 10231762
21:00+7nnw36685 0.0 102694
10 may, mon
mon1000:00+5nnw36745 0.0 1027107
03:00+4nnw36760 0.0 102796
06:00+4nnw37770 0.0 1028144
09:00+11n57550 0.0 1028642
12:00+14n67435 0.0 10261947
15:00+15n78415 0.0 10252198
18:00+14n69529 0.0 10241816
21:00+9nnw411715 0.0 1024232
11 may, tue
tue1100:00+8nnw6147595 0.0 1022380
03:00+9n71373100 0.2 1020603
06:00+9n71377100 0.1 1019562
09:00+11nne71475100 0.1 1018659
12:00+12nne71080100 0.0 1018992
15:00+12ne6108228 0.1 1018794
18:00+13ne7116399 0.1 10191636
21:00+10ne61271100 0.1 1018952
12 may, wed
wed1200:00+9ene81378100 0.1 10171235
03:00+9ene6118298 0.2 1016897
06:00+8ene61183100 0.2 1015840
09:00+10e798195 0.7 1015957
12:00+11ese7108299 1.2 1014920
15:00+10ese101589100 2.7 1014930
18:00+11se81386100 1.9 1014897
21:00+10se5119198 5.4 1014635